Starlink 30941

operational
NORAD ID: 58475 Int'l Des: 2023-186 Owner: SPXS Country: US Constellation: starlink
LEOCIRCULAR

Über Starlink 30941

Beschreibung wird geladen...

Live-Position

3D-Globus wird geladen...

Nächste Überflüge

Höhenverlauf

Altitude vs Time

uPlot chart will show altitude changes over time

Zweizeiliger Elementsatz

1 58475U 23186C 25351.75451977 -.00000303 00000-0 -73311-5 0 9998
2 58475 43.0030 152.8950 0001307 264.0386 96.0308 15.02531634113529
Epoch: 17. Dez. 2025 • Age: 15 hours

Aktueller Status

Höhe 564.1 km
Geschwindigkeit 7.58 km/s
Subsatellitenpunkt -23.38°S, 128.31°E
Startdatum 3. Dez. 2023
Alter 2 years
Typ internet

Technische Details

Klassifizierung Payload
Masse 730.00 kg
Trockenmasse 700.00 kg
Gesamtmasse 730.00 kg
Länge 0.30 m
Durchmesser 4.10 m
Spannweite 29.00 m
Form Box + pan
Hersteller SPXS
Bus-Typ Starlink V2M
Phasenstatus In Orbit
Besitzer/Staat SPXS/US

Große Konstellationen

Loading constellations...